Гран При Монако: третья тренировка

Гран При Монако: третья тренировка

После перерыва в пятницу, пилоты Ф1 снова вернулись на трассу Монте-Карло и снова на трассе лучшими были пилоты Mercedes. Однако, на этот раз Льюис Хэмильтон смог оторваться всего на 0.05 секунды.

Ничто не предвещало такие результаты, ведь, проработав почти 50 минут сессии на мягкой резине, пилоты серебряных стрел были лучше других почти на секунду. Лишь пилоты Red Bull были в половине секунды от лучшего на тот момент времени Нико Росберга.

Однако, после перехода на супермягкую резину, пилоты Red Bull смогли прибавить и даже на какое-то время взяли первые строчки протокола. Сместить оттуда их смог только Хэмильтон. Его время 1:16.758 могло быть и лучше, если бы не ошибка на последнем секторе.

Тем не менее, время Даниэля Риккиардо и Себастьяна Феттеля говорит о том, что в квалификации впервые в этом сезоне другая команда может побороться за поул.

Остальной протокол выглядел довольно интересно, ведь в нем пилоты расположились командными парами. Ferrari – 5 и 6, Force India 7 и 8, Toro Rosso 9 и 10, McLaren 11 и 12, Williams 13 и 14.

И лишь дальше такой порядок нарушился. Обращает внимание 17-ый результат Жуля Бьянки, который опередил своего напарника на 1.5 секунды, а заодно и еще семь пилотов. Воистину, улицы Монте-Карло предоставляют возможность показать всё свое мастерство.

 
Дата24 мая 2014Погодасолнечно
Киевское время12:00-13:00 ч.Температура19°C
Местное время11:00-12:00 ч.Влажность55-58%
Участники22Давление1.016 mBar
Рекорд в гонке1:14.439 мин.Асфальт24°C
Рекорд в квалификации1:13.556 мин.Ветер2 м/с, северо-западный

Результаты

Поз.ПилотКомандаВремяОтставаниеот пред.Круги
144L. HamiltonMercedes1:16.758  27
23D. RicciardoRed Bull1:16.808+0:00.050+0:00.05026
36N. RosbergMercedes1:16.874+0:00.116+0:00.06624
41S. VettelRed Bull1:17.184+0:00.426+0:00.31023
514F. AlonsoFerrari1:17.428+0:00.670+0:00.24422
67K. RäikkönenFerrari1:17.448+0:00.690+0:00.02024
711S. PerezForce India1:17.725+0:00.967+0:00.27723
827N. HülkenbergForce India1:18.074+0:01.316+0:00.34921
925J. VergneToro Rosso1:18.136+0:01.378+0:00.06219
1026D. KwjatToro Rosso1:18.166+0:01.408+0:00.03026
1120K. MagnussenMcLaren1:18.249+0:01.491+0:00.08328
1222J. ButtonMcLaren1:18.262+0:01.504+0:00.01321
1377V. BottasWilliams1:18.430+0:01.672+0:00.16831
1419F. MassaWilliams1:18.542+0:01.784+0:00.11230
1599A. SutilSauber1:18.598+0:01.840+0:00.05624
168R. GrosjeanLotus1:18.776+0:02.018+0:00.17826
1717J. BianchiMarussia1:18.872+0:02.114+0:00.09623
1813P. MaldonadoLotus1:19.118+0:02.360+0:00.24628
1921E. GutierrezSauber1:19.149+0:02.391+0:00.03128
2010K. KobayashiCaterham1:20.271+0:03.513+0:01.12232
214M. ChiltonMarussia1:20.394+0:03.636+0:00.12325
229M. EricssonCaterham1:20.589+0:03.831+0:00.19530
 107 % барьер1:22.131 
от пред. = от предыдущего

Будьте частиною чогось більшого

Написати коментар
Показати коментарі
Про цю статтю
Серія Формула 1
Тип статті Важливі новини